WetterOnline ( https://www.wetteronline.de )

Wetter aktuell Geisenheim

Aktuelles Wetter: Geisenheim (110m)

6-stündlich | Neueste Meldungen
Ortszeit Temperatur Wetter
Mo, 17.06. 2:00 16.0° C bedeckt
So, 16.06. 20:00 18.5° C bedeckt
So, 16.06. 14:00 19.5° C wolkig
So, 16.06. 8:00 15.1° C wolkig
So, 16.06. 2:00 13.0° C bewölkt
Sa, 15.06. 20:00 19.1° C wolkig
Sa, 15.06. 14:00 19.7° C leicht bewölkt
Sa, 15.06. 8:00 13.4° C Regen
Ortszeit Temperatur Wetter
Mo, 17.06. 3:30 15.4° C bewölkt
Mo, 17.06. 3:20 15.4° C bewölkt
Mo, 17.06. 3:10 15.5° C Sprühregen
Mo, 17.06. 3:00 15.7° C bedeckt
Mo, 17.06. 2:50 15.7° C bedeckt
Mo, 17.06. 2:40 15.8° C bedeckt
Mo, 17.06. 2:30 15.9° C bedeckt
Mo, 17.06. 2:00 16.0° C bedeckt
Mo, 17.06. 1:30 15.7° C bedeckt
Mo, 17.06. 1:00 15.9° C bedeckt
Mo, 17.06. 0:30 15.9° C bedeckt
Ortszeit Relative Feuchte Sichtweite
Mo, 17.06. 2:00 79% 60 km
So, 16.06. 20:00 60% >70 km
So, 16.06. 14:00 51% >70 km
So, 16.06. 8:00 75% >70 km
So, 16.06. 2:00 77% 50 km
Sa, 15.06. 20:00 41% 65 km
Sa, 15.06. 14:00 38% >70 km
Sa, 15.06. 8:00 88% 60 km
Ortszeit Relative Feuchte Sichtweite
Mo, 17.06. 3:30 85% 65 km
Mo, 17.06. 3:20 85% -
Mo, 17.06. 3:10 83% -
Mo, 17.06. 3:00 82% 60 km
Mo, 17.06. 2:50 82% -
Mo, 17.06. 2:40 81% -
Mo, 17.06. 2:30 80% 60 km
Mo, 17.06. 2:00 79% 60 km
Mo, 17.06. 1:30 80% 55 km
Mo, 17.06. 1:00 79% >70 km
Mo, 17.06. 0:30 79% >70 km
Ortszeit Niederschlagsmenge Niederschlagsart
Mo, 17.06. 2:00 0.0 l/m2 in 6 Std. -
So, 16.06. 20:00 0.1 l/m2 in 12 Std. Regen
So, 16.06. 14:00 0.1 l/m2 in 6 Std. Regen
So, 16.06. 8:00 0.1 l/m2 in 12 Std. Regen
So, 16.06. 2:00 0.0 l/m2 in 6 Std. -
Sa, 15.06. 20:00 0.1 l/m2 in 12 Std. -
Sa, 15.06. 14:00 0.1 l/m2 in 6 Std. Regen
Sa, 15.06. 8:00 5 l/m2 in 12 Std. Regen
Ortszeit Niederschlagsmenge Niederschlagsart
Mo, 17.06. 3:30 <0.05 l/m2 in 30 Min Schneeregen
Mo, 17.06. 3:20 keine Meldung -
Mo, 17.06. 3:10 keine Meldung -
Mo, 17.06. 3:00 0.0 l/m2 in 1 Std. -
Mo, 17.06. 2:50 keine Meldung -
Mo, 17.06. 2:40 keine Meldung -
Mo, 17.06. 2:30 0.0 l/m2 in 30 Min -
Mo, 17.06. 2:00 0.0 l/m2 in 1 Std. -
Mo, 17.06. 1:30 0.0 l/m2 in 30 Min -
Mo, 17.06. 1:00 0.0 l/m2 in 1 Std. -
Mo, 17.06. 0:30 0.0 l/m2 in 30 Min -
Ortszeit Stärke Spitze Richtung
km/h Bft. km/h Grad Sektor
Mo, 17.06. 2:00 2 1 22 200° S
So, 16.06. 20:00 17 3 37 230° SW
So, 16.06. 14:00 19 3 37 220° SW
So, 16.06. 8:00 6 1 19 190° S
So, 16.06. 2:00 2 1 30 10° N
Sa, 15.06. 20:00 19 3 52 240° SW
Sa, 15.06. 14:00 29 5 47 240° SW
Sa, 15.06. 8:00 7 2 36 210° SW
Ortszeit Stärke Spitze Richtung
km/h Bft. km/h Grad Sektor
Mo, 17.06. 3:30 4 1 4 170° S
Mo, 17.06. 3:20 4 1 - 170° S
Mo, 17.06. 3:10 2 1 - 200° S
Mo, 17.06. 3:00 4 1 11 180° S
Mo, 17.06. 2:50 4 1 - 180° S
Mo, 17.06. 2:40 4 1 - 170° S
Mo, 17.06. 2:30 0 0 7 - -
Mo, 17.06. 2:00 2 1 6 200° S
Mo, 17.06. 1:30 2 1 6 50° NO
Mo, 17.06. 1:00 2 1 7 30° NO
Mo, 17.06. 0:30 0 0 7 - -
Ortszeit Untergrenze Bedeckung Gattung
total tief tief mittel hoch
Mo, 17.06. 2:00 720 m 8/8 8/8 - - -
So, 16.06. 20:00 1200 m 8/8 8/8 - - -
So, 16.06. 14:00 1470 m 8/8 1/8 - - -
So, 16.06. 8:00 2400 m 8/8 2/8 - - -
So, 16.06. 2:00 3600 m 7/8 7/8 - - -
Sa, 15.06. 20:00 2400 m 5/8 4/8 - - -
Sa, 15.06. 14:00 1500 m 4/8 4/8 - - -
Sa, 15.06. 8:00 2100 m 7/8 7/8 - - -
Ortszeit Bedeckungsgrad in Achtel und Wolkenuntergrenze
Mo, 17.06. 3:30 1(690m) 7(2100m) 8(5700m)
Mo, 17.06. 3:20 1(690m) 7(2100m) 8(5700m)
Mo, 17.06. 3:10 8
Mo, 17.06. 3:00 4(570m) 8(2400m) 8(5700m)
Mo, 17.06. 2:50 4(570m) 8(2400m) 8(5700m)
Mo, 17.06. 2:40 8
Mo, 17.06. 2:30 6(660m) 8(1410m) 8(2700m)
Mo, 17.06. 2:00 7(720m) 8(900m)
Mo, 17.06. 1:30 5(780m) 7(1290m) 8(2400m)
Mo, 17.06. 1:00 4(870m) 8(2400m) 8(3000m)
Mo, 17.06. 0:30 7(900m) 7(1350m) 8(2400m)
Ortszeit Luftdruck NN (hPa) Tendenz (hPa in 3 Std.)
Mo, 17.06. 2:00 1011 + 0,5
So, 16.06. 20:00 1010 + 0,4
So, 16.06. 14:00 1009 - 0,9
So, 16.06. 8:00 1011 + 0,4
So, 16.06. 2:00 1010 + 0,1
Sa, 15.06. 20:00 1009 + 0,5
Sa, 15.06. 14:00 1009 + 0,7
Sa, 15.06. 8:00 1007 + 2,5
Ortszeit Luftdruck NN (hPa) Tendenz (hPa in 3 Std.)
Mo, 17.06. 3:30 1011 - 0,1
Mo, 17.06. 3:20 1011 keine Meldung
Mo, 17.06. 3:10 1011 keine Meldung
Mo, 17.06. 3:00 1012 + 0,2
Mo, 17.06. 2:50 1012 keine Meldung
Mo, 17.06. 2:40 1012 keine Meldung
Mo, 17.06. 2:30 1011 + 0,1
Mo, 17.06. 2:00 1011 + 0,5
Mo, 17.06. 1:30 1011 + 0,4
Mo, 17.06. 1:00 1011 + 0,6
Mo, 17.06. 0:30 1011 + 1,0
Ortszeit Schneehöhe (cm)
Mo, 17.06. 2:00 0
So, 16.06. 20:00 0
So, 16.06. 14:00 0
So, 16.06. 8:00 0
So, 16.06. 2:00 0
Sa, 15.06. 20:00 0
Sa, 15.06. 14:00 0
Sa, 15.06. 8:00 0
Ortszeit Schneehöhe (cm)
Mo, 17.06. 3:30 0
Mo, 17.06. 3:20 0
Mo, 17.06. 3:10 -
Mo, 17.06. 3:00 0
Mo, 17.06. 2:50 0
Mo, 17.06. 2:40 -
Mo, 17.06. 2:30 0
Mo, 17.06. 2:00 0
Mo, 17.06. 1:30 0
Mo, 17.06. 1:00 0
Mo, 17.06. 0:30 0
Link zu dieser Seite / Seite empfehlen

Das Wetter in ...